Time,TemperatureF,DewpointF,PressureIn,WindDirection,WindDirectionDegrees,WindSpeedMPH,WindSpeedGustMPH,Humidity,HourlyPrecipIn,Conditions,Clouds,dailyrainin,SolarRadiationWatts/m^2,SoftwareType,DateUTC
2013-06-14 00:01:00,63.0,55.0,29.72,WNW,293,3.0,9.0,75,0.00,,,0.01,0.000000,,2013-06-14 04:01:00,
2013-06-14 00:12:00,62.0,54.0,29.72,NW,308,4.0,11.0,76,0.00,,,0.01,0.000000,,2013-06-14 04:12:00,
2013-06-14 00:22:00,62.0,54.0,29.73,NNW,330,7.0,12.0,75,0.00,,,0.01,0.000000,,2013-06-14 04:22:00,
2013-06-14 00:33:00,62.0,54.0,29.73,NNW,330,7.0,12.0,75,0.00,,,0.01,0.000000,,2013-06-14 04:33:00,
2013-06-14 00:43:00,62.0,55.0,29.73,NW,311,4.0,11.0,77,0.00,,,0.01,0.000000,,2013-06-14 04:43:00,
2013-06-14 00:53:00,62.0,55.0,29.73,NW,311,4.0,11.0,77,0.00,,,0.01,0.000000,,2013-06-14 04:53:00,
2013-06-14 01:02:00,62.0,55.0,29.73,NW,311,4.0,11.0,77,0.00,,,0.01,0.000000,,2013-06-14 05:02:00,
2013-06-14 01:11:00,62.0,54.0,29.73,ENE,63,6.0,18.0,76,0.00,,,0.01,0.000000,,2013-06-14 05:11:00,
2013-06-14 01:22:00,62.0,54.0,29.73,ENE,63,6.0,18.0,76,0.00,,,0.01,0.000000,,2013-06-14 05:22:00,
2013-06-14 01:34:00,62.0,54.0,29.73,ENE,63,6.0,18.0,76,0.00,,,0.01,0.000000,,2013-06-14 05:34:00,
2013-06-14 01:43:00,62.0,55.0,29.73,West,264,3.0,11.0,77,0.00,,,0.01,0.000000,,2013-06-14 05:43:00,
2013-06-14 01:52:00,62.0,55.0,29.73,West,264,3.0,11.0,77,0.00,,,0.01,0.000000,,2013-06-14 05:52:00,
2013-06-14 02:02:00,62.0,55.0,29.73,West,264,3.0,11.0,77,0.00,,,0.01,0.000000,,2013-06-14 06:02:00,
2013-06-14 02:12:00,62.0,55.0,29.74,West,277,2.0,7.0,77,0.00,,,0.01,0.000000,,2013-06-14 06:12:00,
2013-06-14 02:22:00,62.0,54.0,29.74,WNW,285,4.0,11.0,76,0.00,,,0.01,0.000000,,2013-06-14 06:22:00,
2013-06-14 02:33:00,62.0,54.0,29.74,NE,38,6.0,15.0,75,0.00,,,0.01,0.000000,,2013-06-14 06:33:00,
2013-06-14 02:43:00,62.0,54.0,29.75,NW,321,6.0,12.0,76,0.00,,,0.01,0.000000,,2013-06-14 06:43:00,
2013-06-14 02:52:00,62.0,54.0,29.75,NW,321,6.0,12.0,76,0.00,,,0.01,0.000000,,2013-06-14 06:52:00,
2013-06-14 03:02:00,62.0,55.0,29.74,NE,34,1.0,9.0,77,0.00,,,0.01,0.000000,,2013-06-14 07:02:00,
2013-06-14 03:12:00,61.0,53.0,29.74,NW,325,4.0,13.0,76,0.00,,,0.01,0.000000,,2013-06-14 07:12:00,
2013-06-14 03:22:00,61.0,53.0,29.74,NW,325,4.0,13.0,76,0.00,,,0.01,0.000000,,2013-06-14 07:22:00,
2013-06-14 03:33:00,61.0,53.0,29.74,WSW,254,2.0,7.0,76,0.00,,,0.01,0.000000,,2013-06-14 07:33:00,
2013-06-14 03:43:00,61.0,53.0,29.74,WSW,254,2.0,7.0,76,0.00,,,0.01,0.000000,,2013-06-14 07:43:00,
2013-06-14 03:53:00,61.0,54.0,29.74,West,265,4.0,9.0,77,0.00,,,0.01,0.000000,,2013-06-14 07:53:00,
2013-06-14 04:02:00,61.0,54.0,29.74,NW,307,2.0,6.0,77,0.00,,,0.01,0.000000,,2013-06-14 08:02:00,
2013-06-14 04:12:00,61.0,54.0,29.74,NW,307,2.0,6.0,77,0.00,,,0.01,0.000000,,2013-06-14 08:12:00,
2013-06-14 04:23:00,61.0,54.0,29.74,West,273,2.0,7.0,77,0.00,,,0.01,0.000000,,2013-06-14 08:23:00,
2013-06-14 04:33:00,61.0,53.0,29.73,West,266,1.0,6.0,76,0.00,,,0.01,0.000000,,2013-06-14 08:33:00,
2013-06-14 04:43:00,61.0,53.0,29.73,West,266,1.0,6.0,76,0.00,,,0.01,0.000000,,2013-06-14 08:43:00,
2013-06-14 04:53:00,61.0,53.0,29.73,West,278,4.0,9.0,74,0.00,,,0.01,0.000000,,2013-06-14 08:53:00,
2013-06-14 05:02:00,60.0,52.0,29.74,West,265,0.0,6.0,74,0.00,,,0.01,0.000000,,2013-06-14 09:02:00,
2013-06-14 05:12:00,60.0,52.0,29.74,West,265,0.0,6.0,74,0.00,,,0.01,0.000000,,2013-06-14 09:12:00,
2013-06-14 05:22:00,60.0,52.0,29.74,West,271,0.0,7.0,74,0.00,,,0.01,0.000000,,2013-06-14 09:22:00,
2013-06-14 05:33:00,60.0,51.0,29.75,NNW,331,2.0,8.0,73,0.00,,,0.01,0.000000,,2013-06-14 09:33:00,
2013-06-14 05:43:00,60.0,51.0,29.75,NNW,331,2.0,8.0,73,0.00,,,0.01,0.000000,,2013-06-14 09:43:00,
2013-06-14 05:53:00,60.0,52.0,29.75,SSW,203,1.0,3.0,74,0.00,,,0.01,0.000000,,2013-06-14 09:53:00,
2013-06-14 06:01:00,60.0,52.0,29.75,SSW,203,1.0,3.0,74,0.00,,,0.01,0.000000,,2013-06-14 10:01:00,
2013-06-14 06:12:00,59.0,51.0,29.75,West,281,2.0,7.0,74,0.00,,,0.01,0.000000,,2013-06-14 10:12:00,
2013-06-14 06:22:00,59.0,51.0,29.75,WSW,242,2.0,6.0,74,0.00,,,0.01,5.000000,,2013-06-14 10:22:00,
2013-06-14 06:34:00,59.0,51.0,29.76,NE,36,0.0,6.0,75,0.00,,,0.01,11.000000,,2013-06-14 10:34:00,
2013-06-14 06:43:00,59.0,51.0,29.76,NE,36,0.0,6.0,75,0.00,,,0.01,11.000000,,2013-06-14 10:43:00,
2013-06-14 06:53:00,59.0,51.0,29.77,NE,54,0.0,3.0,76,0.00,,,0.01,16.000000,,2013-06-14 10:53:00,
2013-06-14 07:02:00,59.0,51.0,29.77,NE,54,0.0,3.0,76,0.00,,,0.01,16.000000,,2013-06-14 11:02:00,
2013-06-14 07:11:00,59.0,52.0,29.78,NE,44,0.0,4.0,77,0.00,,,0.01,51.000000,,2013-06-14 11:11:00,
2013-06-14 07:23:00,59.0,52.0,29.78,NE,44,0.0,4.0,77,0.00,,,0.01,51.000000,,2013-06-14 11:23:00,
2013-06-14 07:32:00,59.0,52.0,29.79,NE,44,0.0,1.0,79,0.00,,,0.01,60.000000,,2013-06-14 11:32:00,
2013-06-14 07:43:00,59.0,53.0,29.79,NE,44,0.0,1.0,81,0.00,,,0.01,58.000000,,2013-06-14 11:43:00,
2013-06-14 07:52:00,60.0,53.0,29.79,West,279,0.0,3.0,79,0.00,,,0.01,214.000000,,2013-06-14 11:52:00,
2013-06-14 08:02:00,60.0,53.0,29.79,West,279,0.0,3.0,79,0.00,,,0.01,214.000000,,2013-06-14 12:02:00,
2013-06-14 08:12:00,61.0,53.0,29.80,WNW,293,1.0,5.0,75,0.00,,,0.01,290.000000,,2013-06-14 12:12:00,
2013-06-14 08:22:00,61.0,53.0,29.80,WNW,293,1.0,5.0,75,0.00,,,0.01,290.000000,,2013-06-14 12:22:00,
2013-06-14 08:33:00,62.0,54.0,29.81,NW,309,2.0,6.0,75,0.00,,,0.01,176.000000,,2013-06-14 12:33:00,
2013-06-14 08:43:00,62.0,54.0,29.82,West,279,0.0,8.0,76,0.00,,,0.01,197.000000,,2013-06-14 12:43:00,
2013-06-14 08:52:00,62.0,54.0,29.82,West,279,0.0,8.0,76,0.00,,,0.01,197.000000,,2013-06-14 12:52:00,
2013-06-14 09:02:00,61.0,53.0,29.83,NNW,345,4.0,8.0,74,0.00,,,0.01,193.000000,,2013-06-14 13:02:00,
2013-06-14 09:11:00,62.0,54.0,29.83,North,355,3.0,8.0,74,0.00,,,0.01,162.000000,,2013-06-14 13:11:00,
2013-06-14 09:22:00,62.0,53.0,29.85,WNW,295,3.0,12.0,73,0.00,,,0.01,216.000000,,2013-06-14 13:22:00,
2013-06-14 09:33:00,62.0,53.0,29.85,WNW,295,3.0,12.0,73,0.00,,,0.01,216.000000,,2013-06-14 13:33:00,
2013-06-14 09:43:00,62.0,53.0,29.86,North,360,4.0,12.0,72,0.00,,,0.01,220.000000,,2013-06-14 13:43:00,
2013-06-14 09:53:00,62.0,53.0,29.87,NW,319,3.0,19.0,73,0.00,,,0.01,306.000000,,2013-06-14 13:53:00,
2013-06-14 10:02:00,62.0,53.0,29.87,NW,319,3.0,19.0,73,0.00,,,0.01,306.000000,,2013-06-14 14:02:00,
2013-06-14 10:11:00,63.0,54.0,29.87,NNW,341,4.0,10.0,72,0.00,,,0.01,844.000000,,2013-06-14 14:11:00,
2013-06-14 10:22:00,63.0,54.0,29.88,WNW,303,4.0,13.0,72,0.00,,,0.01,490.000000,,2013-06-14 14:22:00,
2013-06-14 10:34:00,63.0,54.0,29.88,WNW,303,4.0,13.0,72,0.00,,,0.01,490.000000,,2013-06-14 14:34:00,
2013-06-14 10:43:00,63.0,53.0,29.88,NNW,348,4.0,11.0,70,0.00,,,0.01,378.000000,,2013-06-14 14:43:00,
2013-06-14 10:52:00,64.0,54.0,29.88,West,269,5.0,11.0,70,0.00,,,0.01,445.000000,,2013-06-14 14:52:00,
2013-06-14 11:02:00,64.0,54.0,29.88,West,269,5.0,11.0,70,0.00,,,0.01,445.000000,,2013-06-14 15:02:00,
2013-06-14 11:11:00,64.0,54.0,29.88,WNW,301,3.0,8.0,69,0.00,,,0.01,977.000000,,2013-06-14 15:11:00,
2013-06-14 11:23:00,66.0,54.0,29.88,North,355,3.0,12.0,66,0.00,,,0.01,,,2013-06-14 15:23:00,
2013-06-14 11:33:00,66.0,54.0,29.88,North,355,3.0,12.0,66,0.00,,,0.01,,,2013-06-14 15:33:00,
2013-06-14 11:44:00,66.0,53.0,29.89,North,351,6.0,11.0,64,0.00,,,0.01,341.000000,,2013-06-14 15:44:00,
2013-06-14 11:53:00,66.0,53.0,29.89,North,351,6.0,11.0,64,0.00,,,0.01,341.000000,,2013-06-14 15:53:00,
2013-06-14 12:01:00,67.0,54.0,29.89,NNE,24,6.0,11.0,62,0.00,,,0.01,,,2013-06-14 16:01:00,
2013-06-14 12:11:00,67.0,54.0,29.90,NNE,26,5.0,10.0,62,0.00,,,0.01,461.000000,,2013-06-14 16:11:00,
2013-06-14 12:22:00,67.0,54.0,29.90,NNE,26,5.0,10.0,62,0.00,,,0.01,461.000000,,2013-06-14 16:22:00,
2013-06-14 12:33:00,67.0,54.0,29.89,North,355,5.0,9.0,63,0.00,,,0.01,269.000000,,2013-06-14 16:33:00,
2013-06-14 12:43:00,67.0,54.0,29.89,NNE,16,5.0,23.0,62,0.00,,,0.01,,,2013-06-14 16:43:00,
2013-06-14 12:52:00,68.0,54.0,29.89,NE,40,3.0,10.0,61,0.00,,,0.01,325.000000,,2013-06-14 16:52:00,
2013-06-14 13:02:00,68.0,54.0,29.89,NE,40,3.0,10.0,61,0.00,,,0.01,325.000000,,2013-06-14 17:02:00,
2013-06-14 13:12:00,67.0,53.0,29.89,North,5,6.0,13.0,60,0.00,,,0.01,415.000000,,2013-06-14 17:12:00,
2013-06-14 13:22:00,67.0,53.0,29.89,North,5,6.0,13.0,60,0.00,,,0.01,415.000000,,2013-06-14 17:22:00,
2013-06-14 13:34:00,70.0,55.0,29.90,NW,321,6.0,11.0,59,0.00,,,0.01,371.000000,,2013-06-14 17:34:00,
2013-06-14 13:43:00,70.0,55.0,29.89,NNE,19,5.0,13.0,58,0.00,,,0.01,,,2013-06-14 17:43:00,
2013-06-14 13:53:00,71.0,54.0,29.90,North,5,5.0,11.0,54,0.00,,,0.01,,,2013-06-14 17:53:00,
2013-06-14 14:02:00,71.0,54.0,29.90,North,5,5.0,11.0,54,0.00,,,0.01,,,2013-06-14 18:02:00,
2013-06-14 14:11:00,72.0,54.0,29.90,NW,315,7.0,14.0,53,0.00,,,0.01,301.000000,,2013-06-14 18:11:00,
2013-06-14 14:22:00,69.0,53.0,29.90,ENE,69,4.0,11.0,57,0.00,,,0.01,,,2013-06-14 18:22:00,
2013-06-14 14:32:00,69.0,53.0,29.90,ENE,69,4.0,11.0,57,0.00,,,0.01,,,2013-06-14 18:32:00,
2013-06-14 14:43:00,70.0,53.0,29.90,ENE,57,7.0,15.0,55,0.00,,,0.01,297.000000,,2013-06-14 18:43:00,
2013-06-14 14:52:00,70.0,53.0,29.90,ENE,57,7.0,15.0,55,0.00,,,0.01,297.000000,,2013-06-14 18:52:00,
2013-06-14 15:01:00,71.0,54.0,29.91,ENE,64,8.0,14.0,55,0.00,,,0.01,,,2013-06-14 19:01:00,
2013-06-14 15:11:00,71.0,53.0,29.91,WNW,284,6.0,12.0,53,0.00,,,0.01,482.000000,,2013-06-14 19:11:00,
2013-06-14 15:22:00,72.0,53.0,29.91,NE,46,6.0,21.0,52,0.00,,,0.00,178.000000,,2013-06-14 19:22:00,
2013-06-14 15:32:00,72.0,53.0,29.91,NE,46,6.0,21.0,52,0.00,,,0.00,178.000000,,2013-06-14 19:32:00,
2013-06-14 15:43:00,72.0,54.0,29.91,ENE,63,5.0,12.0,54,0.00,,,0.00,942.000000,,2013-06-14 19:43:00,
2013-06-14 15:53:00,72.0,54.0,29.91,ENE,63,5.0,12.0,54,0.00,,,0.00,942.000000,,2013-06-14 19:53:00,
2013-06-14 16:02:00,73.0,54.0,29.91,WNW,299,4.0,16.0,51,0.00,,,0.00,334.000000,,2013-06-14 20:02:00,
2013-06-14 16:11:00,73.0,54.0,29.91,WNW,299,4.0,16.0,51,0.00,,,0.00,334.000000,,2013-06-14 20:11:00,
2013-06-14 16:22:00,72.0,54.0,29.91,NNW,329,6.0,12.0,53,0.00,,,0.00,294.000000,,2013-06-14 20:22:00,
2013-06-14 16:33:00,72.0,54.0,29.90,NW,313,6.0,13.0,53,0.00,,,0.00,817.000000,,2013-06-14 20:33:00,
2013-06-14 16:43:00,72.0,52.0,29.90,ENE,59,8.0,16.0,50,0.00,,,0.00,919.000000,,2013-06-14 20:43:00,
2013-06-14 16:53:00,72.0,52.0,29.90,ENE,59,8.0,16.0,50,0.00,,,0.00,919.000000,,2013-06-14 20:53:00,
2013-06-14 17:02:00,71.0,53.0,29.90,North,5,4.0,12.0,53,0.00,,,0.00,691.000000,,2013-06-14 21:02:00,
2013-06-14 17:12:00,72.0,53.0,29.90,North,349,4.0,13.0,52,0.00,,,0.00,640.000000,,2013-06-14 21:12:00,
2013-06-14 17:22:00,72.0,53.0,29.91,NNE,31,4.0,10.0,52,0.00,,,0.00,612.000000,,2013-06-14 21:22:00,
2013-06-14 17:34:00,72.0,53.0,29.91,NNE,31,4.0,10.0,52,0.00,,,0.00,612.000000,,2013-06-14 21:34:00,
2013-06-14 17:42:00,73.0,53.0,29.91,ENE,57,5.0,13.0,50,0.00,,,0.00,559.000000,,2013-06-14 21:42:00,
2013-06-14 17:52:00,72.0,54.0,29.90,North,11,4.0,11.0,53,0.00,,,0.00,123.000000,,2013-06-14 21:52:00,
2013-06-14 18:02:00,72.0,54.0,29.90,North,11,4.0,11.0,53,0.00,,,0.00,123.000000,,2013-06-14 22:02:00,
2013-06-14 18:12:00,72.0,54.0,29.90,North,11,4.0,11.0,53,0.00,,,0.00,123.000000,,2013-06-14 22:12:00,
2013-06-14 18:22:00,72.0,53.0,29.90,WNW,284,3.0,11.0,52,0.00,,,0.00,527.000000,,2013-06-14 22:22:00,
2013-06-14 18:33:00,72.0,53.0,29.90,WNW,284,3.0,11.0,52,0.00,,,0.00,527.000000,,2013-06-14 22:33:00,
2013-06-14 18:43:00,72.0,54.0,29.91,WNW,290,4.0,10.0,53,0.00,,,0.00,446.000000,,2013-06-14 22:43:00,
2013-06-14 18:53:00,72.0,54.0,29.91,WNW,290,4.0,10.0,53,0.00,,,0.00,446.000000,,2013-06-14 22:53:00,
2013-06-14 19:02:00,72.0,54.0,29.91,West,278,4.0,10.0,53,0.00,,,0.00,369.000000,,2013-06-14 23:02:00,
2013-06-14 19:11:00,72.0,54.0,29.91,North,5,4.0,8.0,54,0.00,,,0.00,357.000000,,2013-06-14 23:11:00,
2013-06-14 19:22:00,72.0,54.0,29.91,North,5,4.0,8.0,54,0.00,,,0.00,357.000000,,2013-06-14 23:22:00,
2013-06-14 19:33:00,71.0,54.0,29.92,NNW,331,3.0,8.0,56,0.00,,,0.00,58.000000,,2013-06-14 23:33:00,
2013-06-14 19:43:00,71.0,54.0,29.92,NNW,331,3.0,8.0,56,0.00,,,0.00,58.000000,,2013-06-14 23:43:00,
2013-06-14 19:52:00,71.0,54.0,29.92,NNW,331,3.0,8.0,56,0.00,,,0.00,58.000000,,2013-06-14 23:52:00,
2013-06-14 20:01:00,70.0,54.0,29.93,NNE,19,3.0,7.0,57,0.00,,,0.00,63.000000,,2013-06-15 00:01:00,
2013-06-14 20:11:00,70.0,54.0,29.93,NNE,22,4.0,8.0,57,0.00,,,0.00,90.000000,,2013-06-15 00:11:00,
2013-06-14 20:23:00,70.0,54.0,29.93,NNE,22,4.0,8.0,57,0.00,,,0.00,90.000000,,2013-06-15 00:23:00,
2013-06-14 20:34:00,70.0,55.0,29.93,NE,39,2.0,9.0,58,0.00,,,0.00,26.000000,,2013-06-15 00:34:00,
2013-06-14 20:43:00,69.0,54.0,29.93,NNW,331,3.0,8.0,59,0.00,,,0.00,16.000000,,2013-06-15 00:43:00,
2013-06-14 20:53:00,69.0,54.0,29.93,NNW,331,3.0,8.0,59,0.00,,,0.00,16.000000,,2013-06-15 00:53:00,
2013-06-14 21:01:00,69.0,54.0,29.93,NNW,331,3.0,8.0,59,0.00,,,0.00,16.000000,,2013-06-15 01:01:00,
2013-06-14 21:11:00,68.0,54.0,29.94,ENE,68,2.0,5.0,61,0.00,,,0.00,0.000000,,2013-06-15 01:11:00,
2013-06-14 21:22:00,68.0,54.0,29.94,ENE,68,2.0,5.0,61,0.00,,,0.00,0.000000,,2013-06-15 01:22:00,
2013-06-14 21:33:00,68.0,54.0,29.94,ENE,68,2.0,5.0,61,0.00,,,0.00,0.000000,,2013-06-15 01:33:00,
2013-06-14 21:43:00,67.0,54.0,29.95,NNE,28,1.0,3.0,62,0.00,,,0.00,0.000000,,2013-06-15 01:43:00,
2013-06-14 21:54:00,67.0,54.0,29.95,NNE,26,1.0,4.0,64,0.00,,,0.00,0.000000,,2013-06-15 01:54:00,
2013-06-14 22:02:00,66.0,54.0,29.95,North,5,0.0,1.0,65,0.00,,,0.00,0.000000,,2013-06-15 02:02:00,
2013-06-14 22:11:00,66.0,54.0,29.95,North,5,0.0,1.0,65,0.00,,,0.00,0.000000,,2013-06-15 02:11:00,
2013-06-14 22:23:00,66.0,55.0,29.95,North,5,0.0,0.0,67,0.00,,,0.00,0.000000,,2013-06-15 02:23:00,
2013-06-14 22:33:00,66.0,55.0,29.95,North,5,0.0,0.0,67,0.00,,,0.00,0.000000,,2013-06-15 02:33:00,
2013-06-14 22:43:00,65.0,55.0,29.96,North,360,0.0,2.0,69,0.00,,,0.00,0.000000,,2013-06-15 02:43:00,
2013-06-14 22:53:00,64.0,54.0,29.97,North,360,0.0,1.0,69,0.00,,,0.00,0.000000,,2013-06-15 02:53:00,
2013-06-14 23:01:00,64.0,54.0,29.97,North,360,0.0,1.0,71,0.00,,,0.00,0.000000,,2013-06-15 03:01:00,
2013-06-14 23:11:00,64.0,54.0,29.97,North,360,0.0,1.0,71,0.00,,,0.00,0.000000,,2013-06-15 03:11:00,
2013-06-14 23:24:00,63.0,55.0,29.98,North,360,0.0,1.0,74,0.00,,,0.00,0.000000,,2013-06-15 03:24:00,
2013-06-14 23:32:00,62.0,55.0,29.98,North,360,0.0,0.0,77,0.00,,,0.00,0.000000,,2013-06-15 03:32:00,
2013-06-14 23:44:00,61.0,54.0,29.99,North,360,0.0,0.0,78,0.00,,,0.00,0.000000,,2013-06-15 03:44:00,
2013-06-14 23:52:00,61.0,54.0,29.99,North,360,0.0,0.0,78,0.00,,,0.00,0.000000,,2013-06-15 03:52:00,